EW0362 Weather Reports


time (UTC)temp
C
wind
direction
speed
KPH
gust
KPH
rain 1hr
cm
rain 24hr
cm
rain mn
cm
humidity
%
barometer
mb
20260906194203 20 55 1.6 4.8 0.00 0.15 0.15 67 1013.5
20260906192704 21 146 0.0 1.6 0.00 0.15 0.15 66 1013.4
20260906190203 21 73 1.6 3.2 0.00 0.15 0.15 67 1013.6
20260906185206 20 65 1.6 4.8 0.00 0.15 0.15 67 1013.7
20260906183703 20 264 3.2 8.0 0.00 0.15 0.15 68 1013.8
20260906183205 20 229 1.6 8.0 0.00 0.15 0.15 70 1013.9
20260906181203 20 89 1.6 4.8 0.00 0.15 0.15 72 1013.9
20260906180703 20 60 1.6 8.0 0.00 0.15 0.15 74 1014.0
20260906180203 20 229 0.0 3.2 0.00 0.15 0.15 74 1013.9
20260906175704 20 228 0.0 4.8 0.00 0.15 0.15 74 1014.0
20260906174203 20 228 1.6 3.2 0.00 0.15 0.15 76 1014.1
20260906173703 20 131 0.0 3.2 0.00 0.15 0.15 76 1014.2
20260906172702 19 279 1.6 3.2 0.00 0.15 0.15 74 1014.4
20260906171202 19 51 0.0 4.8 0.00 0.15 0.15 74 1014.6
20260906165203 20 85 1.6 4.8 0.00 0.15 0.15 73 1014.8
20260906163703 18 88 1.6 8.0 0.00 0.15 0.15 73 1014.9
20260906163203 18 300 1.6 8.0 0.00 0.15 0.15 77 1014.9
20260906162202 18 244 4.8 9.7 0.00 0.15 0.15 79 1014.9
20260906161703 18 216 3.2 9.7 0.00 0.15 0.15 83 1015.0
20260906160703 18 85 0.0 8.0 0.00 0.15 0.15 86 1015.1
20260906155203 18 266 0.0 4.8 0.00 0.15 0.15 84 1015.2
20260906154203 17 71 1.6 4.8 0.00 0.15 0.15 83 1015.1
20260906152702 17 271 0.0 3.2 0.00 0.15 0.15 89 1015.3
20260906152203 17 271 0.0 3.2 0.00 0.15 0.15 88 1015.3
20260906151703 17 266 0.0 3.2 0.00 0.15 0.15 90 1015.3
20260906145702 17 285 0.0 0.0 0.00 0.15 0.15 91 1015.6
20260906145203 17 285 0.0 1.6 0.00 0.15 0.15 91 1015.5
20260906144702 17 285 1.6 3.2 0.00 0.15 0.15 91 1015.6
20260906144203 17 141 1.6 3.2 0.00 0.15 0.15 90 1015.6
20260906143703 17 120 0.0 3.2 0.00 0.15 0.15 90 1015.6
20260906143203 16 121 0.0 1.6 0.00 0.15 0.15 90 1015.6
20260906141203 16 98 0.0 1.6 0.00 0.15 0.15 92 1015.6
20260906135203 16 98 0.0 1.6 0.00 0.15 0.15 94 1015.6
20260906133703 16 58 0.0 3.2 0.00 0.15 0.15 94 1015.5
20260906130703 15 59 1.6 3.2 0.00 0.15 0.15 97 1015.4
20260906125703 15 57 0.0 0.0 0.00 0.15 0.15 98 1015.4
20260906122702 15 57 0.0 0.0 0.00 0.15 0.15 98 1015.5
20260906122203 15 57 0.0 0.0 0.00 0.15 0.15 98 1015.4
20260906121702 15 57 0.0 0.0 0.00 0.15 0.15 98 1015.5
20260906115702 15 57 0.0 1.6 0.00 0.15 0.15 97 1015.3
20260906114702 14 57 0.0 0.0 0.00 0.15 0.15 97 1015.3
20260906112703 14 57 0.0 0.0 0.03 0.15 0.15 97 1015.1
20260906112204 14 57 0.0 0.0 0.03 0.15 0.15 96 1015.0
20260906110704 14 57 0.0 0.0 0.03 0.15 0.15 96 1014.8
20260906110203 14 57 0.0 0.0 0.03 0.15 0.15 96 1014.8
20260906105704 14 57 0.0 0.0 0.03 0.15 0.15 96 1014.7
20260906104704 14 57 0.0 0.0 0.03 0.15 0.15 96 1014.7
20260906103704 14 57 0.0 0.0 0.00 0.13 0.13 96 1014.5
20260906103203 14 57 0.0 0.0 0.00 0.13 0.13 96 1014.4
20260906102704 14 57 0.0 0.0 0.00 0.13 0.13 96 1014.3
20260906102203 14 57 0.0 0.0 0.00 0.13 0.13 96 1014.2
20260906101204 14 57 0.0 0.0 0.00 0.13 0.13 96 1014.2
20260906100704 14 57 0.0 0.0 0.00 0.13 0.13 96 1014.2
20260906094704 15 57 0.0 0.0 0.00 0.13 0.13 96 1014.0
20260906092704 15 57 0.0 1.6 0.05 0.13 0.13 95 1013.8
20260906092203 15 57 0.0 0.0 0.08 0.13 0.13 96 1013.7
20260906091704 15 57 0.0 0.0 0.08 0.13 0.13 96 1013.8
20260906090704 15 57 0.0 0.0 0.10 0.13 0.13 96 1013.8
20260906084703 15 57 0.0 0.0 0.10 0.13 0.13 95 1013.8
20260906083704 15 57 0.0 1.6 0.08 0.10 0.10 96 1013.7
20260906083203 15 57 0.0 0.0 0.08 0.10 0.10 96 1014.0
20260906082703 15 57 0.0 1.6 0.05 0.08 0.08 95 1013.9
20260906081703 15 57 0.0 0.0 0.03 0.05 0.05 95 1013.4
20260906074704 15 57 0.0 0.0 0.00 0.03 0.03 95 1013.5
20260906074204 16 57 0.0 0.0 0.00 0.03 0.03 95 1013.3
20260906073703 16 57 0.0 0.0 0.00 0.03 0.03 95 1013.2
20260906072703 16 57 0.0 0.0 0.00 0.03 0.03 95 1013.1
20260906072204 16 57 0.0 0.0 0.00 0.03 0.03 95 1013.1
20260906071203 16 57 0.0 0.0 0.03 0.03 0.03 95 1013.0
20260906070704 16 57 0.0 0.0 0.03 0.03 0.03 95 1013.0
20260906070203 16 57 0.0 0.0 0.03 0.03 0.03 95 1013.1
20260906063704 16 57 0.0 0.0 0.03 0.03 0.03 95 1012.9
20260906062703 16 57 0.0 0.0 0.03 0.03 0.03 95 1012.9
20260906062203 16 57 0.0 0.0 0.03 0.03 0.03 95 1012.8
20260906061204 16 56 0.0 0.0 0.00 0.00 0.00 96 1013.0
20260906060703 16 56 0.0 0.0 0.00 0.00 0.00 96 1013.1
20260906055204 16 56 0.0 0.0 0.00 0.00 0.00 96 1012.9
20260906054704 16 56 0.0 0.0 0.00 0.00 0.00 96 1012.9
20260906054203 17 56 0.0 0.0 0.00 0.00 0.00 96 1012.9
20260906053704 17 56 0.0 0.0 0.00 0.00 0.00 96 1012.9
20260906052703 17 56 0.0 0.0 0.00 0.00 0.00 96 1012.9
20260906052204 17 56 0.0 0.0 0.00 0.00 0.00 96 1013.0
20260906051204 17 56 0.0 0.0 0.00 0.00 0.00 95 1013.0
20260906045704 17 56 0.0 0.0 0.00 0.00 0.00 95 1013.1
20260906045204 17 56 0.0 0.0 0.00 0.00 0.00 95 1013.1
20260906044704 17 56 0.0 0.0 0.00 0.00 0.00 95 1013.1
20260906044204 17 56 0.0 0.0 0.00 0.00 0.00 95 1013.0
20260906043203 17 56 0.0 0.0 0.00 0.00 0.00 95 1013.0
20260906042205 17 56 0.0 0.0 0.00 0.00 0.00 95 1013.0
20260906041205 17 56 0.0 0.0 0.00 0.00 0.00 95 1013.0
20260906035705 17 56 0.0 0.0 0.00 0.00 0.00 95 1013.0
20260906035205 17 56 0.0 0.0 0.00 0.00 0.00 95 1013.0
20260906034705 17 56 0.0 0.0 0.00 0.00 0.00 95 1013.0
20260906033705 17 56 0.0 0.0 0.00 0.00 0.00 95 1012.9
20260906032705 17 56 0.0 0.0 0.00 0.00 0.00 95 1012.9
20260906032205 17 56 0.0 0.0 0.00 0.00 0.00 95 1012.8
20260906030705 17 56 0.0 0.0 0.00 0.00 0.00 95 1012.7
20260906025704 17 56 0.0 0.0 0.00 0.00 0.00 95 1012.8
20260906025204 17 56 0.0 0.0 0.00 0.00 0.00 95 1012.7
20260906024705 17 56 0.0 0.0 0.00 0.00 0.00 95 1012.7
20260906024204 17 56 0.0 0.0 0.00 0.00 0.00 95 1012.8
20260906022705 17 56 0.0 0.0 0.00 0.00 0.00 94 1012.7
20260906022205 17 56 0.0 0.0 0.00 0.00 0.00 94 1012.6
20260906021205 17 56 0.0 0.0 0.00 0.00 0.00 94 1012.6
20260906020704 17 56 0.0 0.0 0.00 0.00 0.00 94 1012.6
20260906020205 17 56 0.0 0.0 0.00 0.00 0.00 94 1012.7
20260906015204 17 56 0.0 0.0 0.00 0.00 0.00 94 1012.7
20260906014204 17 56 0.0 0.0 0.00 0.00 0.00 94 1012.8
20260906013704 17 56 0.0 0.0 0.00 0.00 0.00 94 1012.8
20260906011704 17 56 0.0 0.0 0.00 0.00 0.00 94 1012.8
20260906005205 17 56 0.0 0.0 0.00 0.00 0.00 93 1012.6
20260906004704 17 56 0.0 0.0 0.00 0.00 0.00 93 1012.6
20260906004204 17 56 0.0 0.0 0.00 0.00 0.00 93 1012.6
20260906002204 17 56 0.0 0.0 0.00 0.00 0.00 92 1012.3
20260906001705 17 56 0.0 0.0 0.00 0.00 0.00 92 1012.3
20260906001205 17 56 0.0 0.0 0.00 0.00 0.00 92 1012.3
20260905235705 18 56 0.0 0.0 0.00 0.00 0.00 92 1012.2
20260905235205 18 56 0.0 0.0 0.00 0.00 0.00 91 1012.2
20260905232704 18 56 0.0 0.0 0.00 0.00 0.00 91 1012.0
20260905232204 18 56 0.0 0.0 0.00 0.00 0.00 91 1012.0
20260905231705 18 56 0.0 0.0 0.00 0.00 0.00 91 1011.9
20260905230704 18 56 0.0 0.0 0.00 0.00 0.00 90 1011.9
20260905230205 18 56 0.0 0.0 0.00 0.00 0.00 90 1011.9
20260905224705 18 56 0.0 0.0 0.00 0.00 0.00 90 1011.7
20260905223704 18 56 0.0 0.0 0.00 0.00 0.00 90 1011.7
20260905220705 18 53 0.0 0.0 0.00 0.00 0.00 89 1011.6
20260905215706 18 53 1.6 4.8 0.00 0.00 0.00 87 1011.4
20260905214204 18 83 0.0 1.6 0.00 0.00 0.00 88 1011.1
20260905211705 18 35 0.0 3.2 0.00 0.00 0.00 89 1010.8
20260905211205 18 51 1.6 8.0 0.00 0.00 0.00 88 1010.8
20260905210705 18 17 0.0 0.0 0.00 0.00 0.00 89 1010.7
20260905210205 18 17 1.6 3.2 0.00 0.00 0.00 88 1010.7
20260905205205 19 70 1.6 4.8 0.00 0.00 0.00 87 1010.7
20260905204205 19 230 0.0 3.2 0.00 0.00 0.00 86 1010.7
20260905203705 20 45 1.6 12.9 0.00 0.00 0.00 84 1010.7
20260905202204 20 119 1.6 4.8 0.00 0.00 0.00 80 1010.8
20260905200704 22 45 3.2 19.3 0.00 0.00 0.00 77 1010.3
20260905195707 22 340 1.6 3.2 0.00 0.00 0.00 80 1009.9